Location: *
(33.3200°N, 8.3381°W)
Time: 16:41:12
(UTC+00:00)

Hubble Space Telescope - Pass Details

Date: 09 April 2020
Orbit: 536 x 540 km, 28.5° (Epoch: 27 May)

Event Time Altitude Azimuth Distance (km) Brightness Sun altitude
Rises 20:29:42 0° 256° (WSW) 2,666 5.2 -18.8°
Reaches altitude 10° 20:32:02 10° 249° (WSW) 1,776 4.0 -19.2°
Maximum altitude 20:35:55 42° 178° (S) 768 1.3 -19.9°
Enters shadow 20:36:05 42° 172° (S) 771 1.3 -20.0°
